Language: 


Des rapports , des résumés tant et plus, au choix de chacun....


Données statistiques de la station
Quotidien Rapport Juillet 1, 2017 Unités:  Métrique    Anglais   les deux
« Précédent Jour
Suivant Jour »
Quotidien Hebdomadaire Mensuel Annuel Actuel
  Haut: Bas: Moyen:
Température: 23.5 °C 14.3 °C 18 °C
Pt de rosée: 16.0 °C 11.0 °C 13.8 °C
Humidité: 98 % 48 % 78 %
Vitesse du vent: 19.8 km/h 0.0 km/h 7 km/h
Rafales: 28.0 km/h - -
Vent:- - WNW
Pression: 1018.2 hPa 1007.0 hPa -
Précipitation: 0.0 mm    
Historical Graphs
 
 
Données statistiques pour Juillet 1, 2017
Heure Température Point de rosée Pression Vent Vitesse du vent Refales Humidité Pluie (taux horaire)
00:00 14.8 °C 12.0 °C 1007.0 hPa Calm   3.2 km/h 84 % 0.0 mm
00:05 14.7 °C 12.0 °C 1007.0 hPa Calm   3.2 km/h 84 % 0.0 mm
00:06 14.7 °C 12.0 °C 1007.0 hPa Calm   3.2 km/h 84 % 0.0 mm
00:11 14.6 °C 12.0 °C 1007.0 hPa Calm     84 % 0.0 mm
00:16 14.4 °C 12.0 °C 1007.0 hPa Calm     84 % 0.0 mm
00:21 14.4 °C 12.0 °C 1007.0 hPa Calm     84 % 0.0 mm
00:26 14.3 °C 12.0 °C 1007.0 hPa Calm     85 % 0.0 mm
00:32 14.3 °C 12.0 °C 1008.0 hPa Calm     85 % 0.0 mm
00:37 14.4 °C 12.0 °C 1008.0 hPa Calm     86 % 0.0 mm
00:42 14.4 °C 12.0 °C 1008.0 hPa Calm     86 % 0.0 mm
00:47 14.5 °C 13.0 °C 1007.0 hPa Calm     87 % 0.0 mm
00:52 14.5 °C 13.0 °C 1007.0 hPa Calm     87 % 0.0 mm
00:57 14.6 °C 13.0 °C 1007.0 hPa Calm     87 % 0.0 mm
01:02 14.6 °C 13.0 °C 1007.0 hPa Calm     87 % 0.0 mm
01:07 14.7 °C 13.0 °C 1007.0 hPa Calm   7.9 km/h 88 % 0.0 mm
01:12 14.9 °C 13.0 °C 1007.0 hPa West 5.0 km/h 9.3 km/h 89 % 0.0 mm
01:17 15.0 °C 13.0 °C 1008.0 hPa WSW 5.5 km/h 10.5 km/h 88 % 0.0 mm
01:22 15.2 °C 14.0 °C 1008.0 hPa West 6.1 km/h 10.5 km/h 89 % 0.0 mm
01:27 15.3 °C 14.0 °C 1008.0 hPa West 8.7 km/h 9.7 km/h 89 % 0.0 mm
01:32 15.4 °C 14.0 °C 1007.0 hPa West 6.4 km/h 11.6 km/h 89 % 0.0 mm
01:37 15.4 °C 14.0 °C 1007.0 hPa West 10.1 km/h 11.6 km/h 89 % 0.0 mm
01:42 15.6 °C 14.0 °C 1007.0 hPa West 9.0 km/h 10.5 km/h 89 % 0.0 mm
01:47 15.6 °C 14.0 °C 1008.0 hPa West 10.1 km/h 14.0 km/h 89 % 0.0 mm
01:52 15.7 °C 14.0 °C 1008.0 hPa West 12.2 km/h 14.0 km/h 89 % 0.0 mm
01:57 15.7 °C 14.0 °C 1008.0 hPa West 9.0 km/h 12.6 km/h 89 % 0.0 mm
02:02 15.8 °C 14.0 °C 1008.0 hPa West 5.8 km/h 12.6 km/h 89 % 0.0 mm
02:07 15.7 °C 14.0 °C 1008.0 hPa Calm   11.9 km/h 89 % 0.0 mm
02:12 15.7 °C 14.0 °C 1008.0 hPa WSW 1.8 km/h 9.7 km/h 88 % 0.0 mm
02:18 15.6 °C 14.0 °C 1008.0 hPa Calm   9.0 km/h 88 % 0.0 mm
02:23 15.6 °C 14.0 °C 1008.0 hPa WSW 4.3 km/h 6.9 km/h 89 % 0.0 mm
02:33 15.5 °C 14.0 °C 1008.0 hPa Calm   6.9 km/h 89 % 0.0 mm
02:38 15.5 °C 14.0 °C 1008.0 hPa WSW 5.8 km/h 9.7 km/h 89 % 0.0 mm
02:43 15.5 °C 14.0 °C 1008.0 hPa WSW 6.1 km/h 9.7 km/h 90 % 0.0 mm
02:48 15.5 °C 14.0 °C 1008.0 hPa WSW 5.0 km/h 9.7 km/h 89 % 0.0 mm
02:53 15.5 °C 14.0 °C 1008.0 hPa WSW 9.3 km/h 10.1 km/h 90 % 0.0 mm
02:58 15.5 °C 14.0 °C 1008.0 hPa WSW 9.0 km/h 10.1 km/h 90 % 0.0 mm
03:03 15.5 °C 14.0 °C 1008.0 hPa Calm   10.1 km/h 90 % 0.0 mm
03:08 15.4 °C 14.0 °C 1008.0 hPa Calm   9.0 km/h 90 % 0.0 mm
03:13 15.4 °C 14.0 °C 1008.0 hPa West 6.9 km/h 7.9 km/h 90 % 0.0 mm
03:18 15.4 °C 14.0 °C 1008.0 hPa Calm   9.0 km/h 90 % 0.0 mm
03:24 15.5 °C 14.0 °C 1008.0 hPa West 6.4 km/h 9.0 km/h 91 % 0.0 mm
03:29 15.5 °C 14.0 °C 1008.0 hPa West 2.1 km/h 10.1 km/h 91 % 0.0 mm
03:34 15.6 °C 14.0 °C 1008.0 hPa WNW 1.4 km/h 10.1 km/h 91 % 0.0 mm
03:39 15.6 °C 14.0 °C 1008.0 hPa West 5.0 km/h 6.9 km/h 92 % 0.0 mm
03:44 15.6 °C 14.0 °C 1008.0 hPa Calm   11.9 km/h 92 % 0.0 mm
03:49 15.6 °C 14.0 °C 1008.0 hPa Calm   11.9 km/h 92 % 0.0 mm
03:54 15.6 °C 14.0 °C 1008.0 hPa Calm   5.5 km/h 92 % 0.0 mm
03:59 15.6 °C 15.0 °C 1008.0 hPa Calm   4.7 km/h 93 % 0.3 mm
04:04 15.7 °C 15.0 °C 1009.0 hPa Calm   6.1 km/h 94 % 0.3 mm
04:09 15.7 °C 15.0 °C 1009.0 hPa WNW 12.6 km/h 12.6 km/h 94 % 0.5 mm
04:14 15.7 °C 15.0 °C 1009.0 hPa NNW 6.1 km/h 17.2 km/h 94 % 0.5 mm
04:19 15.7 °C 15.0 °C 1008.0 hPa WNW 5.5 km/h 17.2 km/h 95 % 1.0 mm
04:24 15.6 °C 15.0 °C 1008.0 hPa North 6.4 km/h 13.0 km/h 95 % 1.3 mm
04:29 15.6 °C 15.0 °C 1008.0 hPa NW 11.9 km/h 11.9 km/h 95 % 1.3 mm
04:34 15.6 °C 15.0 °C 1008.0 hPa Calm   11.9 km/h 95 % 1.5 mm
04:40 15.6 °C 15.0 °C 1008.0 hPa WNW 9.3 km/h 14.0 km/h 95 % 1.5 mm
04:45 15.5 °C 15.0 °C 1008.0 hPa NNW 5.5 km/h 14.0 km/h 95 % 1.5 mm
04:50 15.4 °C 15.0 °C 1009.0 hPa NW 4.3 km/h 9.3 km/h 95 % 1.8 mm
04:55 15.4 °C 15.0 °C 1009.0 hPa WNW 4.3 km/h 9.3 km/h 95 % 1.8 mm
05:00 15.4 °C 15.0 °C 1009.0 hPa West 5.0 km/h 9.3 km/h 95 % 1.8 mm
05:05 15.3 °C 15.0 °C 1008.0 hPa West 12.6 km/h 12.6 km/h 95 % 1.8 mm
05:10 15.3 °C 15.0 °C 1008.0 hPa West 8.7 km/h 12.6 km/h 95 % 1.5 mm
05:16 15.3 °C 15.0 °C 1008.0 hPa WNW 4.7 km/h 11.9 km/h 95 % 1.5 mm
05:21 15.3 °C 15.0 °C 1008.0 hPa WNW 9.3 km/h 9.7 km/h 95 % 1.0 mm
05:26 15.2 °C 15.0 °C 1008.0 hPa WNW 4.3 km/h 10.1 km/h 96 % 1.0 mm
05:31 15.2 °C 15.0 °C 1009.0 hPa WSW 3.2 km/h 10.1 km/h 96 % 1.5 mm
05:36 15.2 °C 15.0 °C 1009.0 hPa NNW 10.1 km/h 10.5 km/h 96 % 1.3 mm
05:41 15.2 °C 15.0 °C 1009.0 hPa NNW 12.6 km/h 13.0 km/h 96 % 1.5 mm
05:46 15.1 °C 15.0 °C 1009.0 hPa WSW 8.7 km/h 13.0 km/h 96 % 1.3 mm
05:51 15.1 °C 15.0 °C 1009.0 hPa NNW 9.3 km/h 14.0 km/h 96 % 1.5 mm
05:56 15.0 °C 15.0 °C 1009.0 hPa North 2.6 km/h 14.0 km/h 96 % 1.0 mm
06:01 14.9 °C 15.0 °C 1009.0 hPa North 5.5 km/h 13.0 km/h 97 % 1.3 mm
06:06 14.9 °C 15.0 °C 1009.0 hPa Calm   12.2 km/h 97 % 1.3 mm
06:11 14.8 °C 14.0 °C 1009.0 hPa North 5.5 km/h 16.9 km/h 97 % 1.3 mm
06:16 14.7 °C 14.0 °C 1009.0 hPa North 11.6 km/h 16.9 km/h 97 % 1.5 mm
06:21 14.7 °C 14.0 °C 1009.0 hPa NNW 12.6 km/h 15.4 km/h 97 % 1.5 mm
06:26 14.6 °C 14.0 °C 1009.0 hPa WNW 6.9 km/h 12.6 km/h 97 % 1.8 mm
06:31 14.6 °C 14.0 °C 1009.0 hPa North 6.9 km/h 13.0 km/h 97 % 1.3 mm
06:36 14.5 °C 14.0 °C 1009.0 hPa NW 6.4 km/h 13.0 km/h 97 % 1.3 mm
06:41 14.4 °C 14.0 °C 1009.0 hPa North 5.8 km/h 12.6 km/h 97 % 1.0 mm
06:46 14.4 °C 14.0 °C 1009.0 hPa NW 6.9 km/h 10.1 km/h 97 % 1.3 mm
06:51 14.4 °C 14.0 °C 1009.0 hPa North 1.8 km/h 15.4 km/h 97 % 1.3 mm
06:56 14.4 °C 14.0 °C 1009.0 hPa NNW 5.5 km/h 15.4 km/h 97 % 1.3 mm
07:01 14.4 °C 14.0 °C 1009.0 hPa North 5.8 km/h 14.3 km/h 97 % 1.0 mm
07:07 14.3 °C 14.0 °C 1009.0 hPa NNW 6.1 km/h 8.7 km/h 97 % 1.3 mm
07:12 14.3 °C 14.0 °C 1009.0 hPa WSW 9.3 km/h 9.3 km/h 97 % 1.0 mm
07:17 14.3 °C 14.0 °C 1009.0 hPa WSW 4.0 km/h 10.1 km/h 97 % 1.0 mm
07:22 14.4 °C 14.0 °C 1009.0 hPa NNW 1.4 km/h 10.1 km/h 97 % 1.3 mm
07:27 14.3 °C 14.0 °C 1009.0 hPa NNE 5.5 km/h 7.9 km/h 97 % 1.0 mm
07:32 14.3 °C 14.0 °C 1009.0 hPa Calm   11.9 km/h 97 % 1.0 mm
07:37 14.4 °C 14.0 °C 1009.0 hPa Calm   11.9 km/h 97 % 1.0 mm
07:42 14.3 °C 14.0 °C 1009.0 hPa Calm   6.9 km/h 97 % 1.3 mm
07:47 14.4 °C 14.0 °C 1009.0 hPa WNW 8.7 km/h 10.5 km/h 97 % 0.8 mm
07:52 14.4 °C 14.0 °C 1009.0 hPa North 4.0 km/h 10.5 km/h 97 % 0.8 mm
07:57 14.3 °C 14.0 °C 1009.0 hPa West 5.5 km/h 8.7 km/h 97 % 0.8 mm
08:02 14.3 °C 14.0 °C 1009.0 hPa WNW 3.2 km/h 13.7 km/h 97 % 1.0 mm
08:03 14.3 °C 14.0 °C 1009.0 hPa WNW 4.0 km/h 13.7 km/h 97 % 1.0 mm
08:08 14.3 °C 14.0 °C 1009.0 hPa West 6.9 km/h 13.7 km/h 97 % 1.3 mm
08:13 14.4 °C 14.0 °C 1009.0 hPa NE 4.0 km/h 13.0 km/h 97 % 1.3 mm
08:18 14.4 °C 14.0 °C 1009.0 hPa West 13.7 km/h 13.7 km/h 97 % 1.3 mm
08:23 14.4 °C 14.0 °C 1009.0 hPa NNW 2.1 km/h 17.7 km/h 97 % 1.0 mm
08:28 14.5 °C 15.0 °C 1009.0 hPa West 13.0 km/h 17.7 km/h 98 % 1.8 mm
08:33 14.6 °C 15.0 °C 1010.0 hPa WNW 1.4 km/h 13.0 km/h 98 % 1.8 mm
08:38 14.7 °C 15.0 °C 1010.0 hPa Calm   12.2 km/h 98 % 1.5 mm
08:43 14.7 °C 15.0 °C 1010.0 hPa NNW 7.6 km/h 10.1 km/h 98 % 1.5 mm
08:48 14.8 °C 15.0 °C 1010.0 hPa WSW 5.5 km/h 12.6 km/h 98 % 1.5 mm
08:53 14.9 °C 15.0 °C 1010.0 hPa West 1.8 km/h 12.6 km/h 98 % 1.5 mm
08:58 15.1 °C 15.0 °C 1010.0 hPa WSW 6.4 km/h 12.2 km/h 98 % 1.3 mm
09:03 15.2 °C 15.0 °C 1010.0 hPa North 4.7 km/h 12.6 km/h 98 % 1.3 mm
09:08 15.3 °C 15.0 °C 1010.0 hPa NNW 7.2 km/h 13.7 km/h 98 % 1.0 mm
09:13 15.4 °C 15.0 °C 1010.0 hPa NW 6.1 km/h 13.7 km/h 98 % 1.0 mm
09:18 15.5 °C 16.0 °C 1011.1 hPa North 5.0 km/h 13.7 km/h 98 % 1.0 mm
09:23 15.6 °C 16.0 °C 1011.1 hPa NNW 8.7 km/h 13.7 km/h 98 % 0.5 mm
09:28 15.6 °C 15.0 °C 1011.1 hPa North 6.4 km/h 20.1 km/h 97 % 0.3 mm
09:33 15.7 °C 15.0 °C 1010.0 hPa NW 1.8 km/h 20.1 km/h 97 % 0.3 mm
09:38 15.8 °C 15.0 °C 1010.0 hPa North 4.3 km/h 13.0 km/h 97 % 0.3 mm
09:43 15.8 °C 15.0 °C 1010.0 hPa NW 10.5 km/h 14.8 km/h 97 % 0.3 mm
09:49 15.9 °C 16.0 °C 1011.1 hPa NNW 7.9 km/h 14.8 km/h 97 % 0.3 mm
09:54 16.0 °C 16.0 °C 1011.1 hPa WNW 10.1 km/h 13.7 km/h 96 % 0.0 mm
09:59 16.2 °C 16.0 °C 1011.1 hPa Calm   13.7 km/h 96 % 0.0 mm
10:04 16.5 °C 16.0 °C 1011.1 hPa NNW 6.4 km/h 16.3 km/h 96 % 0.0 mm
10:09 16.7 °C 16.0 °C 1011.1 hPa WNW 10.1 km/h 16.3 km/h 95 % 0.0 mm
10:14 16.8 °C 16.0 °C 1011.1 hPa NNW 6.4 km/h 14.0 km/h 95 % 0.0 mm
10:19 16.8 °C 16.0 °C 1010.0 hPa NNW 12.2 km/h 16.9 km/h 94 % 0.0 mm
10:24 16.9 °C 16.0 °C 1010.0 hPa North 12.2 km/h 16.9 km/h 94 % 0.0 mm
10:29 16.9 °C 16.0 °C 1010.0 hPa NW 11.1 km/h 23.8 km/h 93 % 0.0 mm
10:34 17.1 °C 16.0 °C 1010.0 hPa West 6.9 km/h 23.8 km/h 93 % 0.0 mm
10:39 17.3 °C 16.0 °C 1010.0 hPa North 14.3 km/h 16.3 km/h 92 % 0.0 mm
10:44 17.6 °C 16.0 °C 1010.0 hPa NW 9.0 km/h 16.3 km/h 92 % 0.0 mm
10:49 17.7 °C 16.0 °C 1011.1 hPa West 5.8 km/h 14.3 km/h 92 % 0.0 mm
10:54 17.7 °C 16.0 °C 1011.1 hPa NW 3.5 km/h 16.9 km/h 90 % 0.0 mm
10:59 17.7 °C 16.0 °C 1011.1 hPa NNW 6.1 km/h 16.9 km/h 90 % 0.0 mm
11:04 17.8 °C 16.0 °C 1011.1 hPa NNW 9.0 km/h 15.1 km/h 89 % 0.0 mm
11:09 18.0 °C 16.0 °C 1011.1 hPa NNW 19.8 km/h 19.8 km/h 87 % 0.0 mm
11:14 18.2 °C 16.0 °C 1011.1 hPa North 10.5 km/h 21.9 km/h 86 % 0.0 mm
11:19 18.2 °C 16.0 °C 1011.1 hPa North 10.5 km/h 21.9 km/h 85 % 0.0 mm
11:24 18.4 °C 16.0 °C 1011.1 hPa NNW 14.0 km/h 17.2 km/h 85 % 0.0 mm
11:29 18.5 °C 16.0 °C 1011.1 hPa NNW 16.6 km/h 19.5 km/h 82 % 0.0 mm
11:34 18.5 °C 16.0 °C 1012.1 hPa NNE 15.4 km/h 19.8 km/h 82 % 0.0 mm
11:39 18.4 °C 15.0 °C 1012.1 hPa NNW 9.3 km/h 20.6 km/h 80 % 0.0 mm
11:45 18.4 °C 15.0 °C 1012.1 hPa North 4.0 km/h 20.6 km/h 80 % 0.0 mm
11:50 18.6 °C 15.0 °C 1012.1 hPa NW 12.6 km/h 17.2 km/h 80 % 0.0 mm
11:55 18.6 °C 15.0 °C 1012.1 hPa NW 1.4 km/h 16.3 km/h 79 % 0.0 mm
12:00 18.8 °C 15.0 °C 1012.1 hPa WNW 14.0 km/h 17.2 km/h 77 % 0.0 mm
12:05 18.8 °C 14.0 °C 1012.1 hPa NNW 12.6 km/h 17.2 km/h 76 % 0.0 mm
12:10 18.9 °C 15.0 °C 1012.1 hPa North 10.5 km/h 16.3 km/h 77 % 0.0 mm
12:15 18.9 °C 15.0 °C 1012.1 hPa WNW 12.2 km/h 17.2 km/h 76 % 0.0 mm
12:21 18.9 °C 14.0 °C 1013.1 hPa NNW 9.7 km/h 17.2 km/h 74 % 0.0 mm
12:26 19.0 °C 14.0 °C 1013.1 hPa NW 11.9 km/h 16.9 km/h 73 % 0.0 mm
12:31 19.2 °C 15.0 °C 1013.1 hPa NW 9.3 km/h 13.7 km/h 75 % 0.0 mm
12:36 19.3 °C 15.0 °C 1013.1 hPa NW 5.0 km/h 13.7 km/h 74 % 0.0 mm
12:41 19.3 °C 14.0 °C 1013.1 hPa NNW 6.4 km/h 16.6 km/h 72 % 0.0 mm
12:46 19.2 °C 14.0 °C 1013.1 hPa North 12.6 km/h 16.6 km/h 72 % 0.0 mm
12:51 19.2 °C 14.0 °C 1013.1 hPa ENE 11.9 km/h 16.9 km/h 72 % 0.0 mm
12:56 19.3 °C 14.0 °C 1013.1 hPa WNW 9.7 km/h 16.9 km/h 72 % 0.0 mm
13:01 19.3 °C 14.0 °C 1013.1 hPa NNW 16.6 km/h 16.6 km/h 71 % 0.0 mm
13:06 19.6 °C 14.0 °C 1013.1 hPa NW 10.5 km/h 16.6 km/h 71 % 0.0 mm
13:11 19.8 °C 15.0 °C 1013.1 hPa NW 7.9 km/h 16.6 km/h 72 % 0.0 mm
13:16 19.7 °C 14.0 °C 1013.1 hPa North 10.5 km/h 18.3 km/h 70 % 0.0 mm
13:21 19.6 °C 14.0 °C 1013.1 hPa NNW 9.7 km/h 19.8 km/h 70 % 0.0 mm
13:26 19.7 °C 14.0 °C 1013.1 hPa ENE 10.1 km/h 19.8 km/h 71 % 0.0 mm
13:31 19.7 °C 14.0 °C 1013.1 hPa WNW 9.0 km/h 19.8 km/h 70 % 0.0 mm
13:36 19.8 °C 14.0 °C 1013.1 hPa NNE 16.9 km/h 19.8 km/h 70 % 0.0 mm
13:41 20.0 °C 14.0 °C 1013.1 hPa NNW 14.0 km/h 24.5 km/h 68 % 0.0 mm
13:46 20.1 °C 14.0 °C 1013.1 hPa NW 17.2 km/h 24.5 km/h 68 % 0.0 mm
13:51 19.9 °C 14.0 °C 1013.1 hPa NNE 11.9 km/h 20.1 km/h 67 % 0.0 mm
13:56 20.3 °C 14.0 °C 1013.1 hPa NNW 9.7 km/h 20.1 km/h 68 % 0.0 mm
14:01 20.2 °C 14.0 °C 1013.1 hPa North 8.7 km/h 19.8 km/h 66 % 0.0 mm
14:06 20.0 °C 13.0 °C 1013.1 hPa WNW 15.8 km/h 19.8 km/h 66 % 0.0 mm
14:11 19.9 °C 14.0 °C 1013.1 hPa NE 5.0 km/h 17.7 km/h 68 % 0.0 mm
14:16 20.2 °C 14.0 °C 1014.1 hPa NNW 6.9 km/h 17.7 km/h 69 % 0.0 mm
14:21 20.5 °C 15.0 °C 1014.1 hPa NNW 14.0 km/h 19.1 km/h 69 % 0.0 mm
14:26 20.4 °C 14.0 °C 1014.1 hPa East 6.1 km/h 19.8 km/h 68 % 0.0 mm
14:31 20.5 °C 15.0 °C 1014.1 hPa North 10.1 km/h 19.8 km/h 68 % 0.0 mm
14:36 20.5 °C 15.0 °C 1014.1 hPa NW 7.6 km/h 19.5 km/h 68 % 0.0 mm
14:41 20.7 °C 15.0 °C 1014.1 hPa North 15.4 km/h 18.3 km/h 68 % 0.0 mm
14:46 21.0 °C 15.0 °C 1014.1 hPa NNW 10.5 km/h 16.6 km/h 67 % 0.0 mm
14:51 21.3 °C 15.0 °C 1014.1 hPa NNW 17.7 km/h 17.7 km/h 67 % 0.0 mm
14:56 21.5 °C 15.0 °C 1014.1 hPa ENE 10.5 km/h 17.7 km/h 66 % 0.0 mm
15:01 21.5 °C 15.0 °C 1014.1 hPa NW 14.0 km/h 18.3 km/h 65 % 0.0 mm
15:06 21.5 °C 15.0 °C 1014.1 hPa North 19.1 km/h 19.1 km/h 65 % 0.0 mm
15:11 21.1 °C 14.0 °C 1014.1 hPa North 7.9 km/h 24.5 km/h 63 % 0.0 mm
15:16 21.1 °C 13.0 °C 1015.1 hPa NNW 13.7 km/h 24.5 km/h 62 % 0.0 mm
15:21 21.2 °C 13.0 °C 1015.1 hPa North 13.7 km/h 19.1 km/h 61 % 0.0 mm
15:26 21.4 °C 14.0 °C 1015.1 hPa East 9.0 km/h 19.1 km/h 62 % 0.0 mm
15:31 21.6 °C 14.0 °C 1014.1 hPa North 10.1 km/h 19.1 km/h 61 % 0.0 mm
15:37 21.7 °C 13.0 °C 1014.1 hPa East 16.3 km/h 21.2 km/h 58 % 0.0 mm
15:42 21.9 °C 14.0 °C 1014.1 hPa North 5.8 km/h 21.2 km/h 60 % 0.0 mm
15:47 21.7 °C 13.0 °C 1015.1 hPa North 11.6 km/h 20.6 km/h 56 % 0.0 mm
15:52 21.7 °C 12.0 °C 1015.1 hPa North 11.1 km/h 17.7 km/h 55 % 0.0 mm
15:57 22.4 °C 12.0 °C 1015.1 hPa North 12.2 km/h 20.6 km/h 52 % 0.0 mm
16:02 23.2 °C 13.0 °C 1015.1 hPa NW 5.0 km/h 20.6 km/h 52 % 0.0 mm
16:07 22.3 °C 11.0 °C 1015.1 hPa WNW 13.0 km/h 20.9 km/h 48 % 0.0 mm
16:12 22.1 °C 11.0 °C 1015.1 hPa North 15.1 km/h 24.8 km/h 49 % 0.0 mm
16:17 22.0 °C 11.0 °C 1015.1 hPa North 6.9 km/h 24.8 km/h 49 % 0.0 mm
16:19 22.0 °C 11.0 °C 1015.1 hPa NNE 7.6 km/h 24.8 km/h 50 % 0.0 mm
16:24 22.2 °C 11.0 °C 1015.1 hPa NW 11.6 km/h 22.7 km/h 49 % 0.0 mm
16:29 22.1 °C 11.0 °C 1015.1 hPa NNW 6.9 km/h 16.3 km/h 49 % 0.0 mm
16:34 22.1 °C 12.0 °C 1014.1 hPa NNW 15.8 km/h 20.1 km/h 51 % 0.0 mm
16:39 22.3 °C 13.0 °C 1014.1 hPa North 9.3 km/h 20.1 km/h 54 % 0.0 mm
16:44 22.2 °C 13.0 °C 1014.1 hPa ENE 12.6 km/h 19.5 km/h 54 % 0.0 mm
16:49 22.4 °C 13.0 °C 1015.1 hPa NW 14.0 km/h 19.5 km/h 55 % 0.0 mm
16:54 22.7 °C 13.0 °C 1015.1 hPa West 14.8 km/h 23.0 km/h 55 % 0.0 mm
16:59 23.0 °C 13.0 °C 1015.1 hPa North 9.7 km/h 23.8 km/h 51 % 0.0 mm
17:04 23.3 °C 13.0 °C 1015.1 hPa North 18.0 km/h 28.0 km/h 52 % 0.0 mm
17:09 23.0 °C 13.0 °C 1015.1 hPa NNW 10.5 km/h 28.0 km/h 52 % 0.0 mm
17:14 22.8 °C 13.0 °C 1015.1 hPa WNW 9.3 km/h 23.3 km/h 54 % 0.0 mm
17:19 22.9 °C 13.0 °C 1015.1 hPa North 11.6 km/h 20.1 km/h 54 % 0.0 mm
17:24 23.2 °C 14.0 °C 1015.1 hPa NNW 9.3 km/h 16.9 km/h 54 % 0.0 mm
17:26 23.4 °C 14.0 °C 1015.1 hPa North 5.8 km/h 16.9 km/h 54 % 0.0 mm
17:31 23.4 °C 13.0 °C 1015.1 hPa NNW 12.2 km/h 18.3 km/h 52 % 0.0 mm
17:36 23.4 °C 13.0 °C 1015.1 hPa NW 6.1 km/h 18.3 km/h 52 % 0.0 mm
17:41 23.5 °C 14.0 °C 1015.1 hPa NNW 3.2 km/h 17.7 km/h 53 % 0.0 mm
17:51 23.2 °C 13.0 °C 1015.1 hPa NNW 11.6 km/h 20.6 km/h 53 % 0.0 mm
17:56 23.1 °C 13.0 °C 1015.1 hPa NNW 9.7 km/h 20.6 km/h 53 % 0.0 mm
18:01 23.2 °C 13.0 °C 1015.1 hPa West 9.3 km/h 17.2 km/h 53 % 0.0 mm
18:06 23.0 °C 13.0 °C 1015.1 hPa North 13.0 km/h 15.8 km/h 51 % 0.0 mm
18:11 22.8 °C 13.0 °C 1015.1 hPa WNW 3.2 km/h 16.9 km/h 52 % 0.0 mm
18:16 22.8 °C 13.0 °C 1015.1 hPa NNW 7.2 km/h 16.9 km/h 52 % 0.0 mm
18:22 22.8 °C 13.0 °C 1015.1 hPa NE 5.8 km/h 16.9 km/h 52 % 0.0 mm
18:27 22.7 °C 13.0 °C 1015.1 hPa North 9.3 km/h 16.9 km/h 52 % 0.0 mm
18:32 22.8 °C 13.0 °C 1016.1 hPa NNW 9.0 km/h 16.9 km/h 53 % 0.0 mm
18:37 22.7 °C 12.0 °C 1016.1 hPa NW 10.1 km/h 17.7 km/h 51 % 0.0 mm
18:42 22.9 °C 13.0 °C 1016.1 hPa North 10.5 km/h 17.7 km/h 51 % 0.0 mm
18:47 22.8 °C 13.0 °C 1016.1 hPa NNW 12.6 km/h 16.3 km/h 52 % 0.0 mm
18:50 22.8 °C 12.0 °C 1016.1 hPa North 8.7 km/h 19.5 km/h 51 % 0.0 mm
18:55 22.7 °C 12.0 °C 1016.1 hPa WNW 9.7 km/h 19.5 km/h 51 % 0.0 mm
19:00 22.8 °C 12.0 °C 1016.1 hPa North 4.3 km/h 14.0 km/h 51 % 0.0 mm
19:05 22.7 °C 12.0 °C 1016.1 hPa NNE 17.7 km/h 17.7 km/h 51 % 0.0 mm
19:10 22.3 °C 12.0 °C 1016.1 hPa NW 6.4 km/h 17.7 km/h 51 % 0.0 mm
19:15 22.2 °C 12.0 °C 1016.1 hPa NNW 13.0 km/h 16.3 km/h 51 % 0.0 mm
19:25 21.9 °C 12.0 °C 1016.8 hPa West 5.5 km/h 16.9 km/h 53 % 0.0 mm
19:30 22.0 °C 12.0 °C 1016.8 hPa NW 15.4 km/h 15.4 km/h 53 % 0.0 mm
19:35 22.0 °C 12.0 °C 1016.8 hPa NNW 5.8 km/h 15.4 km/h 53 % 0.0 mm
19:40 22.0 °C 12.0 °C 1016.8 hPa WNW 6.1 km/h 15.4 km/h 53 % 0.0 mm
19:46 21.8 °C 12.0 °C 1016.8 hPa NNW 13.7 km/h 15.1 km/h 53 % 0.0 mm
19:51 21.7 °C 12.0 °C 1016.8 hPa North 5.0 km/h 14.0 km/h 53 % 0.0 mm
19:56 21.8 °C 12.0 °C 1016.8 hPa West 2.6 km/h 13.7 km/h 54 % 0.0 mm
20:01 22.0 °C 13.0 °C 1016.8 hPa NNW 3.2 km/h 13.7 km/h 54 % 0.0 mm
20:06 22.0 °C 12.0 °C 1016.8 hPa West 9.0 km/h 10.1 km/h 53 % 0.0 mm
20:11 21.3 °C 12.0 °C 1016.8 hPa North 7.6 km/h 11.9 km/h 53 % 0.0 mm
20:16 20.9 °C 12.0 °C 1016.8 hPa NW 1.8 km/h 11.9 km/h 56 % 0.0 mm
20:21 20.6 °C 12.0 °C 1016.8 hPa North 2.1 km/h 8.7 km/h 57 % 0.0 mm
20:26 20.3 °C 12.0 °C 1016.8 hPa NNW 1.8 km/h 6.4 km/h 58 % 0.0 mm
20:31 19.9 °C 12.0 °C 1016.8 hPa NW 5.0 km/h 6.9 km/h 60 % 0.0 mm
20:36 19.7 °C 12.0 °C 1016.8 hPa NW 4.0 km/h 6.9 km/h 61 % 0.0 mm
20:41 19.5 °C 12.0 °C 1016.8 hPa Calm   6.4 km/h 62 % 0.0 mm
20:47 19.3 °C 12.0 °C 1016.8 hPa Calm   5.0 km/h 63 % 0.0 mm
20:52 19.2 °C 13.0 °C 1016.8 hPa Calm   5.5 km/h 64 % 0.0 mm
20:57 19.1 °C 13.0 °C 1016.8 hPa Calm   5.5 km/h 65 % 0.0 mm
21:02 19.1 °C 13.0 °C 1016.8 hPa Calm   4.7 km/h 65 % 0.0 mm
21:07 19.1 °C 13.0 °C 1016.8 hPa North 5.0 km/h 7.6 km/h 66 % 0.0 mm
21:12 19.0 °C 13.0 °C 1016.8 hPa NNW 4.0 km/h 7.6 km/h 66 % 0.0 mm
21:17 18.9 °C 13.0 °C 1016.8 hPa NNE 6.9 km/h 7.6 km/h 66 % 0.0 mm
21:22 18.8 °C 13.0 °C 1016.8 hPa Calm   7.6 km/h 67 % 0.0 mm
21:27 18.8 °C 13.0 °C 1016.8 hPa Calm   7.6 km/h 67 % 0.0 mm
21:32 18.7 °C 13.0 °C 1016.8 hPa NNW 2.6 km/h 5.8 km/h 68 % 0.0 mm
21:37 18.6 °C 13.0 °C 1016.8 hPa NNW 4.0 km/h 5.5 km/h 68 % 0.0 mm
21:42 18.6 °C 13.0 °C 1016.8 hPa Calm   5.5 km/h 68 % 0.0 mm
21:47 18.5 °C 13.0 °C 1016.8 hPa Calm   4.7 km/h 69 % 0.0 mm
21:52 18.5 °C 13.0 °C 1016.8 hPa Calm   5.5 km/h 69 % 0.0 mm
21:57 18.4 °C 13.0 °C 1016.8 hPa Calm   5.5 km/h 69 % 0.0 mm
22:02 18.4 °C 13.0 °C 1016.8 hPa Calm     69 % 0.0 mm
22:07 18.3 °C 13.0 °C 1016.8 hPa Calm   4.3 km/h 70 % 0.0 mm
22:12 18.2 °C 13.0 °C 1016.8 hPa Calm   5.8 km/h 70 % 0.0 mm
22:17 18.2 °C 13.0 °C 1016.8 hPa WNW 3.5 km/h 5.8 km/h 70 % 0.0 mm
22:22 18.2 °C 13.0 °C 1016.8 hPa Calm   5.0 km/h 70 % 0.0 mm
22:23 18.2 °C 13.0 °C 1016.8 hPa Calm   5.0 km/h 70 % 0.0 mm
22:28 18.1 °C 13.0 °C 1016.8 hPa West 2.1 km/h 3.2 km/h 71 % 0.0 mm
22:33 18.0 °C 13.0 °C 1018.2 hPa Calm   2.1 km/h 71 % 0.0 mm
22:38 18.0 °C 13.0 °C 1018.2 hPa Calm     72 % 0.0 mm
22:43 17.9 °C 13.0 °C 1018.2 hPa Calm     73 % 0.0 mm
22:48 17.8 °C 13.0 °C 1018.2 hPa Calm     74 % 0.0 mm
22:53 17.7 °C 13.0 °C 1018.2 hPa Calm     76 % 0.0 mm
22:58 17.6 °C 13.0 °C 1018.2 hPa SW 6.9 km/h 7.9 km/h 76 % 0.0 mm
23:04 17.7 °C 13.0 °C 1018.2 hPa WSW 8.7 km/h 10.5 km/h 76 % 0.0 mm
23:09 17.7 °C 13.0 °C 1018.2 hPa West 9.7 km/h 12.2 km/h 76 % 0.0 mm
23:14 17.7 °C 13.0 °C 1018.2 hPa West 9.3 km/h 12.6 km/h 75 % 0.0 mm
23:19 17.8 °C 13.0 °C 1018.2 hPa West 14.0 km/h 14.8 km/h 74 % 0.0 mm
23:24 17.8 °C 13.0 °C 1018.2 hPa West 6.9 km/h 14.8 km/h 73 % 0.0 mm
23:29 17.7 °C 13.0 °C 1018.2 hPa West 9.0 km/h 14.3 km/h 73 % 0.0 mm
23:34 17.7 °C 13.0 °C 1018.2 hPa WSW 13.7 km/h 15.4 km/h 73 % 0.0 mm
23:39 17.7 °C 13.0 °C 1018.2 hPa West 16.3 km/h 22.4 km/h 73 % 0.0 mm
23:44 17.7 °C 13.0 °C 1018.2 hPa WSW 16.6 km/h 22.4 km/h 73 % 0.0 mm
23:49 17.6 °C 13.0 °C 1018.2 hPa West 12.6 km/h 17.7 km/h 73 % 0.0 mm
23:54 17.5 °C 13.0 °C 1018.2 hPa West 9.7 km/h 16.3 km/h 74 % 0.0 mm
23:59 17.5 °C 13.0 °C 1018.2 hPa West 10.8 km/h 14.0 km/h 74 % 0.0 mm
Le Gheer Warneton
Courtoisie de Weather Underground - 2.25 mb

Mise a jour : 17-12-17 03:30:12
Généré par Cumulus 1.9.4 (1099)